Simultaneous Nadir Overpasses (SNOs) Predictions

Prediction of SNOs between FY3D and NOAA-19 Satellite Orbit:

Table of predicted SNOs for the next 14.0 days since TLE Epoch: 11/9/2019
Index Date (FY3D) Time (FY3D) Lat,Lon (FY3D) SZA (FY3D ) Date (NOAA-19) Time (NOAA-19) Lat,Lon (NOAA-19) SZA (NOAA-19 ) Distance(km) Time Diff (sec)
1 11/09/2019 02:12:34 79.85, 110.62 98.03 11/09/2019 02:12:05 79.83, 110.52 98.04 2.79 29
2 11/09/2019 03:03:19 -79.85, -82.12 81.95 11/09/2019 03:03:10 -79.84, -82.08 81.96 1.37 9
3 11/09/2019 03:54:03 79.84, 85.28 98.05 11/09/2019 03:54:05 79.85, 85.25 98.05 0.89 2
4 11/09/2019 04:44:48 -79.85,-107.46 81.94 11/09/2019 04:45:10 -79.86,-107.36 81.94 2.25 22
5 11/09/2019 05:35:32 79.84, 59.95 98.06 11/09/2019 05:36:05 79.87, 59.97 98.07 2.96 33
6 11/09/2019 06:26:17 -79.84,-132.79 81.92 11/09/2019 06:27:11 -79.85,-132.95 81.92 3.19 54
7 11/09/2019 07:17:02 79.87, 34.32 98.13 11/09/2019 07:18:06 79.86, 34.39 98.09 1.47 64
8 11/22/2019 14:57:32 79.62, -78.62 101.11 11/22/2019 14:56:26 79.64, -82.14 101.48 70.45 66
9 11/22/2019 15:48:23 -79.81, 86.97 78.57 11/22/2019 15:47:23 -79.80, 86.93 78.55 1.57 60
10 11/22/2019 16:39:07 79.81,-105.66 101.43 11/22/2019 16:38:20 79.82,-105.64 101.46 0.97 47
11 11/22/2019 17:29:52 -79.81, 61.63 78.56 11/22/2019 17:29:23 -79.82, 61.64 78.54 1.14 29
12 11/22/2019 18:20:37 79.83,-131.28 101.50 11/22/2019 18:20:21 79.81,-131.23 101.48 3.04 16
13 11/22/2019 19:11:22 -79.84, 36.01 78.50 11/22/2019 19:11:24 -79.81, 36.05 78.52 2.83 2
14 11/22/2019 20:02:06 79.83,-156.62 101.50 11/22/2019 20:02:21 79.83,-156.51 101.49 2.24 15
15 11/22/2019 20:52:51 -79.83, 10.67 78.49 11/22/2019 20:53:24 -79.83, 10.77 78.51 1.96 33
16 11/22/2019 21:43:35 79.83, 178.04 101.51 11/22/2019 21:44:22 79.82, 177.91 101.50 2.70 47
17 11/22/2019 22:34:20 -79.83, -14.67 78.48 11/22/2019 22:35:25 -79.82, -14.82 78.50 3.03 65




NCC Satellite Simultaneous Nadir Overpasses (SNOs) Prediction Service
